The Dalles, WA

3:39 AM PST on February 24, 2018 (GMT -0800)
Columbia Gorge Regional-The Dalles

Weather History for KDLS - October, 2012

Change the Weather History Date:

Saturday, October 27, 2012

  Actual Average Record
Temperature  
Mean Temperature 46 °F -  
Max Temperature 52 °F 60 °F 78 °F (2003)
Min Temperature 39 °F 38 °F 27 °F (1948)
Degree Days  
Heating Degree Days 20    
Moisture  
Dew Point 43 °F    
Average Humidity 87    
Maximum Humidity 93    
Minimum Humidity 80    
Precipitation  
Precipitation 0.34 in - - ()
Sea Level Pressure  
Sea Level Pressure 30.02 in    
Wind  
Wind Speed 3 mph (SE)    
Max Wind Speed 6 mph    
Max Gust Speed -    
Visibility 8 miles    
Events Rain    
Averages and records for this station are not official NWS values.
T = Trace of Precipitation, MM = Missing Value Source: NWS Daily Summary

Daily Weather History Graph

Daily Weather History Graph

Search for Another Location

Airport or City:

Trip Planner

Search our weather history database for the weather conditions in past years. The results will help you decide how hot, cold, wet, or windy it might be!

Date:

Astronomy

Oct. 27, 2012 Rise Set
Actual Time 7:38 AM PDT 5:58 PM PDT
Civil Twilight 7:07 AM PDT 6:28 PM PDT
Nautical Twilight 6:32 AM PDT 7:03 PM PDT
Astronomical Twilight 5:58 AM PDT 7:37 PM PDT
Moon 4:49 PM PDT (10/27) 5:34 AM PDT (10/27)
Length of Visible Light 11h 21m
Length of Day
10h 19m
Waxing Gibbous, 96% of the Moon is Illuminated
Oct 27
Waxing Gibbous
Oct 29
Full
Nov 6
Last Quarter
Nov 13
New
Nov 20
First Quarter

Hourly Weather History & Observations

Time (PDT) Temp. Windchill Dew Point Humidity Pressure Visibility Wind Dir Wind Speed Gust Speed Precip Events Conditions
12:53 AM 44.1 °F 41.5 °F 39.0 °F 82% 30.12 in 10.0 mi ESE 4.6 mph - N/A   Overcast
1:53 AM 42.1 °F 38.4 °F 37.0 °F 82% 30.12 in 10.0 mi ESE 5.8 mph - N/A   Partly Cloudy
2:53 AM 41.0 °F 39.0 °F 37.0 °F 86% 30.12 in 10.0 mi SSE 3.5 mph - N/A   Partly Cloudy
3:53 AM 39.9 °F 35.8 °F 36.0 °F 86% 30.12 in 10.0 mi ESE 5.8 mph - N/A   Clear
4:53 AM 39.0 °F 35.7 °F 35.1 °F 86% 30.12 in 10.0 mi ESE 4.6 mph - N/A   Clear
5:53 AM 39.0 °F 36.8 °F 35.1 °F 86% 30.12 in 10.0 mi ESE 3.5 mph - N/A   Clear
6:53 AM 41.0 °F - 37.0 °F 86% 30.12 in 10.0 mi Calm Calm - N/A   Overcast
7:53 AM 42.1 °F - 39.0 °F 89% 30.11 in 10.0 mi Calm Calm - N/A   Overcast
8:53 AM 43.0 °F 41.3 °F 39.0 °F 86% 30.12 in 10.0 mi ESE 3.5 mph - 0.00 in Rain Light Rain
9:53 AM 44.1 °F 40.8 °F 41.0 °F 89% 30.10 in 8.0 mi SW 5.8 mph - 0.03 in Rain Light Rain
10:53 AM 45.0 °F - 41.0 °F 86% 30.07 in 7.0 mi Calm Calm - 0.02 in Rain Light Rain
11:19 AM 46.4 °F 44.3 °F 42.8 °F 87% 30.06 in 7.0 mi WSW 4.6 mph - 0.00 in Rain Light Rain
11:53 AM 46.0 °F - 43.0 °F 89% 30.07 in 6.0 mi Calm Calm - 0.00 in Rain Light Rain
12:53 PM 48.9 °F - 45.0 °F 86% 30.03 in 10.0 mi Calm Calm - 0.01 in   Overcast
1:53 PM 51.1 °F - 46.0 °F 83% 30.00 in 10.0 mi Calm Calm - N/A   Overcast
2:53 PM 52.0 °F - 46.0 °F 80% 29.99 in 10.0 mi Calm Calm - 0.00 in Rain Light Rain
3:53 PM 51.1 °F - 46.0 °F 83% 29.99 in 10.0 mi Calm Calm - 0.01 in   Overcast
4:40 PM 50.0 °F - 46.4 °F 87% 29.97 in 1.8 mi Calm Calm - 0.11 in Rain Rain
4:48 PM 50.0 °F - 46.4 °F 87% 29.96 in 3.0 mi Calm Calm - 0.12 in Rain Light Rain
4:53 PM 50.0 °F - 46.9 °F 89% 29.97 in 6.0 mi Calm Calm - 0.12 in Rain Light Rain
5:12 PM 50.0 °F - 46.4 °F 87% 29.96 in 5.0 mi Calm Calm - 0.02 in Rain Light Rain
5:53 PM 50.0 °F - 46.9 °F 89% 29.96 in 6.0 mi Calm Calm - 0.04 in Rain Light Rain
6:01 PM 50.0 °F - 46.4 °F 87% 29.96 in 5.0 mi NNW 3.5 mph - 0.00 in Rain Light Rain
6:53 PM 48.9 °F - 46.0 °F 90% 29.94 in 8.0 mi West 5.8 mph - 0.00 in   Overcast
7:53 PM 48.9 °F - 46.0 °F 90% 29.93 in 10.0 mi Calm Calm - 0.03 in Rain Light Rain
8:53 PM 48.9 °F - 46.9 °F 93% 29.93 in 3.0 mi Calm Calm - 0.06 in Rain Rain
9:53 PM 48.9 °F - 46.0 °F 90% 29.92 in 9.0 mi NE 3.5 mph - 0.02 in Rain Light Rain
10:53 PM 48.0 °F - 46.0 °F 93% 29.92 in 9.0 mi Calm Calm - 0.00 in   Overcast
11:37 PM 48.2 °F - 46.4 °F 93% 29.92 in 9.0 mi Calm Calm - N/A   Mostly Cloudy
11:53 PM 48.0 °F - 46.0 °F 93% 29.91 in 9.0 mi Calm Calm - N/A   Overcast